Regional Weather Roundup
Issued by NWS

Home | Current Version | Previous Version | Graphics & Text | Print | Product List | Glossary On
Versions: 1 2 3 4 5 6 7 8 9 10 11 12 13 14 15 16 17 18 19 20 21 22 23 24 25 26 27 28 29 30 31 32 33 34 35 36 37 38 39 40 41 42 43 44 45 46 47 48 49 50
898
ASUS43 KFSD 020902
RWRSD

WEATHER ROUNDUP FOR SOUTH DAKOTA
NATIONAL WEATHER SERVICE SIOUX FALLS SD
400 AM CDT MON MAY 02 2016

NOTE: "FAIR" INDICATES FEW OR NO CLOUDS BELOW 12,000 FEET WITH NO
SIGNIFICANT WEATHER AND/OR OBSTRUCTIONS TO VISIBILITY.


SDZ001>005-009-010-012>017-021000-
NORTHWEST AND NORTH CENTRAL SOUTH DAKOTA

CITY           SKY/WX    TMP DP  RH WIND       PRES   REMARKS
BUFFALO          N/A     41  29  62 W8        30.09F
FAITH            N/A     39  30  70 SW10      30.14F
MOBRIDGE       CLEAR     46  35  65 N3        30.11F
$$

SDZ012>016-024>037-041>051-057-063-072>074-021000-
SOUTHWEST AND SOUTH CENTRAL SOUTH DAKOTA

CITY           SKY/WX    TMP DP  RH WIND       PRES   REMARKS
RAPID CTY ARPT CLEAR     36  29  75 W7        30.18F
PIERRE         CLEAR     38  33  82 SW9       30.14F
CUSTER         CLEAR     28  22  78 NW3       30.21F
ELLSWORTH AFB  CLEAR     37  30  75 W8        30.17F
PHILIP         CLEAR     34  31  88 W6        30.17F WCI  29
PINE RIDGE     CLEAR     30  26  85 CALM      30.21F
WINNER         FAIR      43  31  62 SW6       30.17F
$$

SDZ004>011-016>023-039-040-021000-
NORTHEAST SOUTH DAKOTA

CITY           SKY/WX    TMP DP  RH WIND       PRES   REMARKS
ABERDEEN       CLOUDY    33  29  85 S5        30.13S WCI  29
WATERTOWN      CLEAR     38  35  89 CALM      30.12F
BROOKINGS      CLEAR     35  33  92 CALM      30.13F
SISSETON         N/A     48  33  56 W12       30.09F
$$

SDZ017-020-022-023-036>040-048>070-021000-
SOUTHEAST SOUTH DAKOTA

CITY           SKY/WX    TMP DP  RH WIND       PRES   REMARKS
SIOUX FALLS    CLEAR     35  32  88 CALM      30.14F
HURON          CLEAR     39  33  79 SW3       30.14F
MITCHELL       CLEAR     41  36  82 W5        30.15F
YANKTON        CLEAR     39  36  87 W5        30.15S
$$

ABBREVIATIONS USED IN REMARKS
   TC - TEMPERATURE IN CELSIUS
  WCI - WIND CHILL INDEX
   HX - HEAT INDEX
  VSB - VISIBILITY





USA.gov is the U.S. government's official web portal to all federal, state and local government web resources and services.